Hourly Data Report for October 06, 2017

All times are specified in Local Standard Time (LST). Add 1 hour to adjust for Daylight Saving Time where and when it is observed.

PENTICTON A
BRITISH COLUMBIA

49°27'45.000" N
119°36'08.000" W
344.40 m
1126146
71889
YYF

Download Data

Hourly Data (October 2017)
Hourly Data Report for October 6, 2017
Temp Definition
°C
Dew Point Temp Definition
°C
Rel Hum Definition
%
Wind Dir Definition
10's deg

Wind Spd Definition
km/h
Visibility Definition
km
Stn Press Definition
kPa
Hmdx Definition


Wind Chill Definition


Weather Definition


TIME
00:00 Legend Double Dagger 7.9 0.1 58 5 8 24.1 97.60     LegendNANA
01:00 Legend Double Dagger 12.1 1.7 49 12 14 24.1 97.58     Clear
02:00 Legend Double Dagger 11.8 3.2 56 14 14 24.1 97.53     LegendNANA
03:00 Legend Double Dagger 8.3 -0.1 55 36 4 24.1 97.54     LegendNANA
04:00 Legend Double Dagger 10.8 2.6 56 16 16 24.1 97.48     Mainly Clear
05:00 Legend Double Dagger 10.8 0.7 49 18 18 24.1 97.41     LegendNANA
06:00 Legend Double Dagger 11.5 1.1 48 18 26 24.1 97.36     LegendNANA
07:00 Legend Double Dagger 10.5 1.2 52 15 18 24.1 97.43     Cloudy
08:00 Legend Double Dagger 10.6 0.8 50 17 31 24.1 97.33     LegendNANA
09:00 Legend Double Dagger 10.7 1.8 54 19 35 24.1 97.28     LegendNANA
10:00 Legend Double Dagger 10.8 2.0 55 19 36 24.1 97.19     Cloudy
11:00 Legend Double Dagger 11.2 2.6 55 18 36 24.1 97.09     LegendNANA
12:00 Legend Double Dagger 12.5 2.7 51 17 27 24.1 97.05     LegendNANA
13:00 Legend Double Dagger 13.3 2.9 49 17 28 24.1 96.91     Mostly Cloudy
14:00 Legend Double Dagger 13.3 3.5 51 17 23 24.1 96.85     LegendNANA
15:00 Legend Double Dagger 12.7 2.9 51 18 30 24.1 96.75     Rain Showers
16:00 Legend Double Dagger 12.9 3.6 53 20 21 24.1 96.77     Cloudy
17:00 Legend Double Dagger 12.8 3.0 51 17 14 24.1 96.71     LegendNANA
18:00 Legend Double Dagger 12.7 4.5 57 18 16 24.1 96.56     LegendNANA
19:00 Legend Double Dagger 11.7 3.2 56 7 9 24.1 96.56     Mostly Cloudy
20:00 Legend Double Dagger 9.7 2.8 62 28 8 24.1 96.52     LegendNANA
21:00 Legend Double Dagger 11.1 4.5 63 18 12 24.1 96.49     LegendNANA
22:00 Legend Double Dagger 9.7 4.3 69 16 12 24.1 96.46     Rain Showers
23:00 Legend Double Dagger 9.0 6.4 83 36 2 24.1 96.55     Rain Showers

Notes on Data Quality.

Legend

  • E = Estimated
  • M = Missing
  • NA = Not Available
  • ‡ = Partner data that is not subject to review by the National Climate Archives
Date modified: